Wetterdaten: Woche 20.03.17 - 26.03.17 (KW12)
Datum Zeit Temp. I. Temp. A. Feuchte I. Feuchte A. Luftdruck Regen Wind Richtung Sonnenschein UV Solar Taupunkt Windchill Windben
20.03.2017 00:00 23,3 C 9,3 C 60 % 86 % 1009,6 hPa 0,0 l/m 8,2 km/h (2 Bft) W 0,00 h 0,0 UV-I 0 W/m 7,1 C 7,4 C 15,2 km/h (3 Bft)
20.03.2017 01:00 23,1 C 9,0 C 60 % 85 % 1009,9 hPa 0,0 l/m 13,7 km/h (3 Bft) W 0,00 h 0,0 UV-I 0 W/m 6,6 C 4,9 C 22,4 km/h (4 Bft)
20.03.2017 02:00 22,9 C 8,8 C 60 % 81 % 1010,1 hPa 0,0 l/m 7,0 km/h (2 Bft) W-SW 0,00 h 0,0 UV-I 0 W/m 5,8 C 7,5 C 14,4 km/h (3 Bft)
20.03.2017 03:00 22,8 C 8,6 C 60 % 83 % 1010,0 hPa 0,0 l/m 6,6 km/h (2 Bft) W-SW 0,00 h 0,0 UV-I 0 W/m 5,8 C 7,4 C 13,8 km/h (3 Bft)
20.03.2017 04:00 22,8 C 8,3 C 60 % 84 % 1010,4 hPa 0,0 l/m 3,6 km/h (1 Bft) W-SW 0,00 h 0,0 UV-I 0 W/m 5,7 C 7,9 C 8,0 km/h (2 Bft)
20.03.2017 05:00 22,7 C 8,0 C 60 % 87 % 1010,7 hPa 0,0 l/m 1,8 km/h (1 Bft) W-SW 0,00 h 0,0 UV-I 0 W/m 5,9 C 8,0 C 4,0 km/h (1 Bft)
20.03.2017 06:00 22,6 C 7,8 C 60 % 88 % 1011,2 hPa 0,0 l/m 1,1 km/h (1 Bft) SW 0,00 h 0,0 UV-I 8 W/m 6,0 C 7,8 C 3,4 km/h (1 Bft)
20.03.2017 07:00 22,8 C 7,9 C 61 % 88 % 1011,4 hPa 0,0 l/m 3,4 km/h (1 Bft) W-SW 0,00 h 0,0 UV-I 27 W/m 6,0 C 7,7 C 8,0 km/h (2 Bft)
20.03.2017 08:00 22,9 C 8,2 C 62 % 87 % 1011,4 hPa 0,0 l/m 6,0 km/h (2 Bft) W-SW 0,00 h 0,5 UV-I 51 W/m 6,2 C 7,5 C 8,8 km/h (2 Bft)
20.03.2017 09:00 23,1 C 8,6 C 61 % 85 % 1011,4 hPa 0,0 l/m 6,0 km/h (2 Bft) W-SW 0,15 h 0,8 UV-I 113 W/m 6,2 C 7,7 C 11,8 km/h (2 Bft)
20.03.2017 10:00 22,9 C 9,5 C 59 % 80 % 1011,5 hPa 0,0 l/m 8,7 km/h (2 Bft) W-SW 1,00 h 1,8 UV-I 305 W/m 6,3 C 7,7 C 17,1 km/h (3 Bft)
20.03.2017 11:00 23,3 C 9,8 C 54 % 77 % 1011,4 hPa 0,0 l/m 5,5 km/h (1 Bft) SW 0,97 h 1,7 UV-I 221 W/m 6,0 C 9,1 C 11,7 km/h (2 Bft)
20.03.2017 12:00 22,9 C 10,2 C 50 % 74 % 1011,0 hPa 0,0 l/m 8,0 km/h (2 Bft) SW 0,67 h 1,4 UV-I 182 W/m 5,7 C 8,6 C 15,3 km/h (3 Bft)
20.03.2017 13:00 23,5 C 10,2 C 52 % 75 % 1010,6 hPa 0,0 l/m 4,8 km/h (1 Bft) SW 0,57 h 1,2 UV-I 157 W/m 6,0 C 9,6 C 9,3 km/h (2 Bft)
20.03.2017 14:00 23,7 C 10,2 C 53 % 76 % 1010,3 hPa 0,0 l/m 3,2 km/h (1 Bft) S 0,00 h 0,8 UV-I 103 W/m 6,2 C 10,1 C 7,3 km/h (2 Bft)
20.03.2017 15:00 23,7 C 10,1 C 53 % 78 % 1009,9 hPa 0,0 l/m 3,1 km/h (1 Bft) S 0,00 h 0,5 UV-I 69 W/m 6,4 C 9,9 C 7,4 km/h (2 Bft)
20.03.2017 16:00 23,7 C 10,2 C 50 % 78 % 1009,5 hPa 0,0 l/m 2,5 km/h (1 Bft) S-SW 0,00 h 0,5 UV-I 67 W/m 6,5 C 10,2 C 6,7 km/h (2 Bft)
20.03.2017 17:00 23,9 C 10,1 C 51 % 78 % 1009,0 hPa 0,0 l/m 1,2 km/h (1 Bft) S-SW 0,00 h 0,0 UV-I 21 W/m 6,4 C 10,1 C 3,0 km/h (1 Bft)
20.03.2017 18:00 24,1 C 9,6 C 53 % 79 % 1008,7 hPa 0,0 l/m 0,0 km/h (0 Bft) N 0,00 h 0,0 UV-I 9 W/m 6,2 C 9,6 C 0,1 km/h (0 Bft)
20.03.2017 19:00 24,3 C 9,0 C 54 % 82 % 1008,9 hPa 0,0 l/m 0,0 km/h (0 Bft) N 0,00 h 0,0 UV-I 0 W/m 6,0 C 9,0 C 0,0 km/h (0 Bft)
20.03.2017 20:00 24,6 C 8,6 C 54 % 82 % 1009,1 hPa 0,0 l/m 0,0 km/h (0 Bft) N 0,00 h 0,0 UV-I 0 W/m 5,7 C 8,6 C 0,0 km/h (0 Bft)
20.03.2017 21:00 24,6 C 8,1 C 55 % 82 % 1008,7 hPa 0,0 l/m 0,0 km/h (0 Bft) N 0,00 h 0,0 UV-I 0 W/m 5,1 C 8,1 C 0,0 km/h (0 Bft)
20.03.2017 22:00 24,6 C 7,8 C 55 % 82 % 1008,5 hPa 0,0 l/m 0,0 km/h (0 Bft) N 0,00 h 0,0 UV-I 0 W/m 4,9 C 7,8 C 0,0 km/h (0 Bft)
20.03.2017 23:00 24,3 C 8,0 C 54 % 81 % 1008,4 hPa 0,0 l/m 0,5 km/h (0 Bft) SW 0,00 h 0,0 UV-I 0 W/m 5,1 C 8,0 C 0,6 km/h (0 Bft)
21.03.2017 00:00 24,1 C 8,6 C 54 % 79 % 1008,2 hPa 0,0 l/m 5,7 km/h (1 Bft) SW 0,00 h 0,0 UV-I 0 W/m 5,1 C 7,9 C 7,7 km/h (2 Bft)
21.03.2017 01:00 23,9 C 8,7 C 54 % 75 % 1008,6 hPa 0,0 l/m 9,6 km/h (2 Bft) W-SW 0,00 h 0,0 UV-I 0 W/m 4,5 C 6,1 C 14,3 km/h (3 Bft)
21.03.2017 02:00 23,8 C 8,3 C 55 % 76 % 1008,7 hPa 0,0 l/m 2,1 km/h (1 Bft) W-SW 0,00 h 0,0 UV-I 0 W/m 4,3 C 8,3 C 4,0 km/h (1 Bft)
21.03.2017 03:00 23,7 C 8,1 C 56 % 77 % 1008,7 hPa 0,0 l/m 2,4 km/h (1 Bft) W-SW 0,00 h 0,0 UV-I 0 W/m 4,2 C 8,1 C 4,6 km/h (1 Bft)
21.03.2017 04:00 23,8 C 7,9 C 56 % 78 % 1009,1 hPa 0,0 l/m 2,3 km/h (1 Bft) W-SW 0,00 h 0,0 UV-I 0 W/m 4,3 C 7,8 C 3,8 km/h (1 Bft)
21.03.2017 05:00 23,7 C 7,7 C 56 % 79 % 1009,4 hPa 0,0 l/m 1,6 km/h (1 Bft) W 0,00 h 0,0 UV-I 0 W/m 4,3 C 7,6 C 3,5 km/h (1 Bft)
21.03.2017 06:00 23,8 C 7,4 C 56 % 81 % 1009,7 hPa 0,0 l/m 0,0 km/h (0 Bft) N 0,00 h 0,0 UV-I 10 W/m 4,4 C 7,4 C 0,0 km/h (0 Bft)
21.03.2017 07:00 24,0 C 7,3 C 56 % 84 % 1009,8 hPa 0,0 l/m 2,4 km/h (1 Bft) S-SO 0,00 h 0,0 UV-I 43 W/m 4,8 C 7,3 C 4,2 km/h (1 Bft)
21.03.2017 08:00 25,4 C 7,8 C 53 % 83 % 1010,0 hPa 0,0 l/m 3,5 km/h (1 Bft) S 0,00 h 0,5 UV-I 62 W/m 5,1 C 7,7 C 6,7 km/h (2 Bft)
21.03.2017 09:00 23,9 C 8,2 C 54 % 82 % 1010,4 hPa 0,0 l/m 3,7 km/h (1 Bft) S 0,00 h 0,6 UV-I 83 W/m 5,3 C 8,2 C 8,3 km/h (2 Bft)
21.03.2017 10:00 23,6 C 9,0 C 54 % 78 % 1010,5 hPa 0,0 l/m 4,7 km/h (1 Bft) S 0,73 h 1,3 UV-I 184 W/m 5,4 C 8,7 C 10,4 km/h (2 Bft)
21.03.2017 11:00 23,6 C 9,7 C 53 % 75 % 1010,3 hPa 0,0 l/m 4,6 km/h (1 Bft) SW 0,82 h 1,4 UV-I 181 W/m 5,6 C 9,5 C 9,8 km/h (2 Bft)
21.03.2017 12:00 23,6 C 10,0 C 52 % 75 % 1009,8 hPa 0,0 l/m 5,2 km/h (1 Bft) S 0,57 h 1,5 UV-I 196 W/m 5,7 C 9,5 C 10,1 km/h (2 Bft)
21.03.2017 13:00 23,6 C 10,2 C 52 % 74 % 1009,5 hPa 0,0 l/m 5,0 km/h (1 Bft) SW 0,10 h 0,9 UV-I 113 W/m 5,7 C 9,8 C 10,0 km/h (2 Bft)
21.03.2017 14:00 23,7 C 10,1 C 52 % 76 % 1009,3 hPa 0,0 l/m 2,1 km/h (1 Bft) SW 0,27 h 0,9 UV-I 124 W/m 6,1 C 10,1 C 5,5 km/h (1 Bft)
21.03.2017 15:00 24,5 C 10,2 C 51 % 75 % 1009,1 hPa 0,0 l/m 2,0 km/h (1 Bft) SW 0,00 h 0,6 UV-I 61 W/m 6,0 C 10,3 C 5,0 km/h (1 Bft)
21.03.2017 16:00 24,3 C 10,0 C 51 % 77 % 1009,1 hPa 0,0 l/m 3,0 km/h (1 Bft) W 0,00 h 0,0 UV-I 39 W/m 6,1 C 10,0 C 6,2 km/h (2 Bft)
21.03.2017 17:00 24,1 C 9,5 C 53 % 81 % 1009,5 hPa 0,0 l/m 1,5 km/h (1 Bft) W 0,00 h 0,0 UV-I 8 W/m 6,4 C 9,5 C 4,0 km/h (1 Bft)
21.03.2017 18:00 24,1 C 8,5 C 54 % 89 % 1010,0 hPa 0,0 l/m 0,0 km/h (0 Bft) N 0,00 h 0,0 UV-I 6 W/m 6,8 C 8,5 C 0,1 km/h (0 Bft)
21.03.2017 19:00 24,2 C 7,9 C 55 % 90 % 1010,6 hPa 0,0 l/m 2,2 km/h (1 Bft) NW 0,00 h 0,0 UV-I 0 W/m 6,4 C 7,6 C 4,2 km/h (1 Bft)
21.03.2017 20:00 24,3 C 6,7 C 54 % 88 % 1011,5 hPa 0,0 l/m 4,2 km/h (1 Bft) N-NW 0,00 h 0,0 UV-I 0 W/m 4,9 C 6,2 C 9,2 km/h (2 Bft)
21.03.2017 21:00 24,1 C 5,9 C 54 % 90 % 1012,0 hPa 0,4 l/m 1,0 km/h (0 Bft) N 0,00 h 0,0 UV-I 0 W/m 4,4 C 5,9 C 3,1 km/h (1 Bft)
21.03.2017 22:00 24,1 C 5,3 C 54 % 92 % 1012,6 hPa 0,2 l/m 2,1 km/h (1 Bft) N 0,00 h 0,0 UV-I 0 W/m 4,1 C 5,3 C 4,9 km/h (1 Bft)
21.03.2017 23:00 23,9 C 4,7 C 54 % 93 % 1012,9 hPa 0,2 l/m 2,7 km/h (1 Bft) N 0,00 h 0,0 UV-I 0 W/m 3,6 C 4,5 C 6,4 km/h (2 Bft)
22.03.2017 00:00 23,6 C 4,2 C 54 % 93 % 1013,4 hPa 0,4 l/m 3,8 km/h (1 Bft) N-NW 0,00 h 0,0 UV-I 0 W/m 3,2 C 3,6 C 7,6 km/h (2 Bft)
22.03.2017 01:00 23,5 C 3,3 C 55 % 93 % 1013,7 hPa 0,0 l/m 8,4 km/h (2 Bft) N-NW 0,00 h 0,0 UV-I 0 W/m 2,3 C 1,3 C 14,8 km/h (3 Bft)
22.03.2017 02:00 23,4 C 2,7 C 55 % 93 % 1013,5 hPa 0,0 l/m 4,2 km/h (1 Bft) N 0,00 h 0,0 UV-I 0 W/m 1,7 C 2,0 C 8,1 km/h (2 Bft)
22.03.2017 03:00 23,3 C 2,8 C 55 % 93 % 1013,7 hPa 0,2 l/m 3,3 km/h (1 Bft) N-NO 0,00 h 0,0 UV-I 0 W/m 1,8 C 2,4 C 6,9 km/h (2 Bft)
22.03.2017 04:00 23,2 C 2,7 C 56 % 93 % 1014,0 hPa 0,2 l/m 1,5 km/h (1 Bft) O-NO 0,00 h 0,0 UV-I 0 W/m 1,7 C 2,6 C 4,9 km/h (1 Bft)
22.03.2017 05:00 23,2 C 2,6 C 56 % 92 % 1014,1 hPa 0,2 l/m 0,2 km/h (0 Bft) O-NO 0,00 h 0,0 UV-I 0 W/m 1,5 C 2,6 C 1,4 km/h (1 Bft)
22.03.2017 06:00 23,2 C 2,2 C 57 % 93 % 1014,4 hPa 0,4 l/m 0,3 km/h (0 Bft) O-NO 0,00 h 0,0 UV-I 7 W/m 1,2 C 2,2 C 0,9 km/h (0 Bft)
22.03.2017 07:00 23,4 C 1,8 C 56 % 94 % 1014,7 hPa 0,8 l/m 0,4 km/h (0 Bft) O-NO 0,00 h 0,0 UV-I 15 W/m 0,9 C 1,8 C 1,5 km/h (1 Bft)
22.03.2017 08:00 22,9 C 1,7 C 50 % 94 % 1015,0 hPa 0,8 l/m 1,0 km/h (0 Bft) O-NO 0,00 h 0,0 UV-I 36 W/m 0,9 C 1,7 C 3,9 km/h (1 Bft)
22.03.2017 09:00 22,4 C 2,2 C 46 % 95 % 1015,5 hPa 0,4 l/m 1,1 km/h (1 Bft) O-NO 0,08 h 0,7 UV-I 103 W/m 1,5 C 2,2 C 4,6 km/h (1 Bft)
22.03.2017 10:00 22,7 C 3,4 C 48 % 94 % 1015,5 hPa 0,0 l/m 3,6 km/h (1 Bft) O-NO 0,30 h 1,0 UV-I 138 W/m 2,6 C 2,9 C 9,9 km/h (2 Bft)
22.03.2017 11:00 22,7 C 3,8 C 49 % 93 % 1015,6 hPa 0,0 l/m 3,2 km/h (1 Bft) O-NO 0,37 h 1,0 UV-I 139 W/m 2,7 C 3,4 C 9,0 km/h (2 Bft)
22.03.2017 12:00 22,7 C 4,1 C 49 % 91 % 1015,6 hPa 0,0 l/m 3,9 km/h (1 Bft) O-NO 0,45 h 1,1 UV-I 151 W/m 2,7 C 3,5 C 10,6 km/h (2 Bft)
22.03.2017 13:00 22,6 C 4,5 C 47 % 89 % 1015,3 hPa 0,2 l/m 3,7 km/h (1 Bft) O-NO 0,55 h 1,2 UV-I 172 W/m 2,9 C 4,1 C 10,2 km/h (2 Bft)
22.03.2017 14:00 22,7 C 5,0 C 50 % 88 % 1015,1 hPa 0,0 l/m 4,5 km/h (1 Bft) O-NO 0,23 h 1,0 UV-I 137 W/m 3,2 C 4,4 C 11,7 km/h (2 Bft)
22.03.2017 15:00 22,8 C 5,0 C 52 % 87 % 1015,2 hPa 0,0 l/m 3,9 km/h (1 Bft) O 0,03 h 0,6 UV-I 75 W/m 3,0 C 4,5 C 10,6 km/h (2 Bft)
22.03.2017 16:00 22,7 C 4,6 C 52 % 90 % 1015,1 hPa 0,0 l/m 3,3 km/h (1 Bft) O-SO 0,00 h 0,0 UV-I 32 W/m 3,1 C 4,4 C 9,8 km/h (2 Bft)
22.03.2017 17:00 22,6 C 4,4 C 52 % 91 % 1015,1 hPa 0,0 l/m 3,7 km/h (1 Bft) O 0,00 h 0,0 UV-I 22 W/m 3,1 C 4,0 C 10,3 km/h (2 Bft)
22.03.2017 18:00 23,6 C 4,4 C 52 % 91 % 1015,3 hPa 0,0 l/m 2,4 km/h (1 Bft) O 0,00 h 0,0 UV-I 7 W/m 3,1 C 4,3 C 8,2 km/h (2 Bft)
22.03.2017 19:00 23,7 C 4,3 C 53 % 93 % 1015,4 hPa 0,0 l/m 1,0 km/h (0 Bft) O 0,00 h 0,0 UV-I 0 W/m 3,2 C 4,2 C 4,2 km/h (1 Bft)
22.03.2017 20:00 23,7 C 4,4 C 53 % 93 % 1015,4 hPa 0,0 l/m 1,2 km/h (1 Bft) O-NO 0,00 h 0,0 UV-I 0 W/m 3,4 C 4,3 C 4,4 km/h (1 Bft)
22.03.2017 21:00 23,9 C 4,6 C 54 % 94 % 1015,6 hPa 0,0 l/m 0,2 km/h (0 Bft) O-NO 0,00 h 0,0 UV-I 0 W/m 3,6 C 4,6 C 1,3 km/h (1 Bft)
22.03.2017 22:00 24,6 C 4,7 C 53 % 94 % 1015,7 hPa 0,0 l/m 0,5 km/h (0 Bft) NO 0,00 h 0,0 UV-I 0 W/m 3,8 C 4,7 C 2,6 km/h (1 Bft)
22.03.2017 23:00 24,2 C 4,8 C 53 % 94 % 1015,6 hPa 0,0 l/m 0,1 km/h (0 Bft) O 0,00 h 0,0 UV-I 0 W/m 4,0 C 4,8 C 0,4 km/h (0 Bft)
23.03.2017 00:00 23,7 C 5,0 C 54 % 94 % 1015,6 hPa 0,0 l/m 0,0 km/h (0 Bft) N 0,00 h 0,0 UV-I 0 W/m 4,2 C 5,0 C 0,1 km/h (0 Bft)
23.03.2017 01:00 23,4 C 5,2 C 54 % 94 % 1015,7 hPa 0,2 l/m 0,0 km/h (0 Bft) O 0,00 h 0,0 UV-I 0 W/m 4,3 C 5,2 C 0,1 km/h (0 Bft)
23.03.2017 02:00 23,2 C 5,2 C 55 % 94 % 1015,4 hPa 0,0 l/m 0,5 km/h (0 Bft) NO 0,00 h 0,0 UV-I 0 W/m 4,3 C 5,2 C 2,5 km/h (1 Bft)
23.03.2017 03:00 23,1 C 5,1 C 55 % 94 % 1015,5 hPa 0,0 l/m 0,3 km/h (0 Bft) NO 0,00 h 0,0 UV-I 0 W/m 4,2 C 5,1 C 1,2 km/h (1 Bft)
23.03.2017 04:00 23,1 C 4,9 C 55 % 94 % 1015,4 hPa 0,0 l/m 0,5 km/h (0 Bft) NO 0,00 h 0,0 UV-I 0 W/m 4,1 C 4,9 C 1,9 km/h (1 Bft)
23.03.2017 05:00 23,0 C 4,8 C 55 % 94 % 1015,6 hPa 0,0 l/m 0,4 km/h (0 Bft) NO 0,00 h 0,0 UV-I 0 W/m 3,9 C 4,8 C 2,2 km/h (1 Bft)
23.03.2017 06:00 22,9 C 4,6 C 55 % 94 % 1015,7 hPa 0,0 l/m 0,4 km/h (0 Bft) NO 0,00 h 0,0 UV-I 0 W/m 3,8 C 4,6 C 1,7 km/h (1 Bft)
23.03.2017 07:00 23,2 C 4,5 C 56 % 95 % 1016,0 hPa 0,0 l/m 0,3 km/h (0 Bft) O-NO 0,00 h 0,0 UV-I 16 W/m 3,8 C 4,5 C 1,5 km/h (1 Bft)
23.03.2017 08:00 23,2 C 4,6 C 56 % 95 % 1016,4 hPa 0,0 l/m 0,1 km/h (0 Bft) NO 0,00 h 0,0 UV-I 36 W/m 3,8 C 4,6 C 0,6 km/h (0 Bft)
23.03.2017 09:00 23,2 C 4,8 C 55 % 94 % 1016,8 hPa 0,0 l/m 0,2 km/h (0 Bft) O 0,00 h 0,6 UV-I 71 W/m 3,9 C 4,8 C 1,4 km/h (1 Bft)
23.03.2017 10:00 23,3 C 5,3 C 56 % 93 % 1017,1 hPa 0,0 l/m 0,1 km/h (0 Bft) SO 0,12 h 0,9 UV-I 126 W/m 4,2 C 5,3 C 0,2 km/h (0 Bft)
23.03.2017 11:00 23,5 C 6,1 C 56 % 90 % 1017,4 hPa 0,0 l/m 0,0 km/h (0 Bft) N 0,37 h 1,1 UV-I 148 W/m 4,5 C 6,1 C 0,0 km/h (0 Bft)
23.03.2017 12:00 23,6 C 7,1 C 58 % 87 % 1017,2 hPa 0,0 l/m 0,0 km/h (0 Bft) N-NO 1,00 h 1,6 UV-I 219 W/m 5,0 C 7,1 C 0,1 km/h (0 Bft)
23.03.2017 13:00 23,7 C 8,0 C 57 % 85 % 1017,2 hPa 0,0 l/m 0,4 km/h (0 Bft) NW 0,88 h 1,6 UV-I 227 W/m 5,6 C 8,0 C 1,3 km/h (1 Bft)
23.03.2017 14:00 23,9 C 8,9 C 58 % 83 % 1016,9 hPa 0,0 l/m 0,8 km/h (0 Bft) N 0,43 h 1,2 UV-I 181 W/m 6,2 C 8,9 C 1,8 km/h (1 Bft)
23.03.2017 15:00 24,0 C 8,7 C 57 % 83 % 1017,3 hPa 0,0 l/m 0,3 km/h (0 Bft) N 0,00 h 0,7 UV-I 68 W/m 6,0 C 8,7 C 1,0 km/h (0 Bft)
23.03.2017 16:00 23,7 C 8,4 C 53 % 84 % 1017,5 hPa 0,0 l/m 0,7 km/h (0 Bft) N 0,00 h 0,0 UV-I 58 W/m 5,9 C 8,4 C 2,5 km/h (1 Bft)
23.03.2017 17:00 23,7 C 8,5 C 52 % 83 % 1017,9 hPa 0,0 l/m 0,6 km/h (0 Bft) N-NW 0,00 h 0,0 UV-I 22 W/m 5,7 C 8,5 C 1,8 km/h (1 Bft)
23.03.2017 18:00 23,6 C 8,1 C 52 % 86 % 1018,3 hPa 0,0 l/m 0,0 km/h (0 Bft) N-NO 0,00 h 0,0 UV-I 7 W/m 5,8 C 8,1 C 0,2 km/h (0 Bft)
23.03.2017 19:00 23,7 C 7,6 C 52 % 87 % 1018,9 hPa 0,0 l/m 0,1 km/h (0 Bft) O-NO 0,00 h 0,0 UV-I 0 W/m 5,6 C 7,6 C 0,5 km/h (0 Bft)
23.03.2017 20:00 23,9 C 7,0 C 53 % 89 % 1019,5 hPa 0,0 l/m 0,3 km/h (0 Bft) N 0,00 h 0,0 UV-I 0 W/m 5,4 C 7,0 C 1,2 km/h (1 Bft)
23.03.2017 21:00 23,9 C 6,5 C 54 % 91 % 1020,1 hPa 0,0 l/m 0,1 km/h (0 Bft) O-NO 0,00 h 0,0 UV-I 0 W/m 5,1 C 6,5 C 0,4 km/h (0 Bft)
23.03.2017 22:00 23,9 C 6,1 C 53 % 92 % 1020,9 hPa 0,0 l/m 0,2 km/h (0 Bft) N-NO 0,00 h 0,0 UV-I 0 W/m 5,0 C 6,1 C 0,6 km/h (0 Bft)
23.03.2017 23:00 23,6 C 6,2 C 53 % 93 % 1021,2 hPa 0,0 l/m 0,9 km/h (0 Bft) N-NO 0,00 h 0,0 UV-I 0 W/m 5,2 C 6,2 C 2,7 km/h (1 Bft)
24.03.2017 00:00 23,4 C 6,4 C 54 % 91 % 1021,3 hPa 0,0 l/m 1,6 km/h (1 Bft) N-NO 0,00 h 0,0 UV-I 0 W/m 5,0 C 6,3 C 4,5 km/h (1 Bft)
24.03.2017 01:00 23,3 C 6,4 C 54 % 90 % 1021,7 hPa 0,0 l/m 1,0 km/h (0 Bft) N-NO 0,00 h 0,0 UV-I 0 W/m 5,0 C 6,4 C 2,6 km/h (1 Bft)
24.03.2017 02:00 23,2 C 6,3 C 54 % 90 % 1022,5 hPa 0,0 l/m 2,2 km/h (1 Bft) O-NO 0,00 h 0,0 UV-I 0 W/m 4,7 C 6,2 C 5,6 km/h (1 Bft)
24.03.2017 03:00 23,1 C 6,1 C 54 % 90 % 1023,2 hPa 0,0 l/m 1,1 km/h (1 Bft) O-NO 0,00 h 0,0 UV-I 0 W/m 4,6 C 6,1 C 3,5 km/h (1 Bft)
24.03.2017 04:00 23,1 C 6,0 C 54 % 90 % 1023,7 hPa 0,0 l/m 2,1 km/h (1 Bft) O-NO 0,00 h 0,0 UV-I 0 W/m 4,5 C 6,0 C 5,9 km/h (2 Bft)
24.03.2017 05:00 23,0 C 5,8 C 55 % 90 % 1024,3 hPa 0,0 l/m 1,8 km/h (1 Bft) O-NO 0,00 h 0,0 UV-I 0 W/m 4,3 C 5,8 C 5,3 km/h (1 Bft)
24.03.2017 06:00 23,1 C 5,6 C 56 % 90 % 1025,4 hPa 0,0 l/m 2,0 km/h (1 Bft) O-NO 0,00 h 0,0 UV-I 9 W/m 4,1 C 5,6 C 5,7 km/h (1 Bft)
24.03.2017 07:00 23,3 C 5,4 C 56 % 90 % 1026,0 hPa 0,0 l/m 2,7 km/h (1 Bft) O-NO 0,00 h 0,0 UV-I 22 W/m 3,9 C 5,2 C 7,4 km/h (2 Bft)
24.03.2017 08:00 23,4 C 5,6 C 57 % 88 % 1026,1 hPa 0,0 l/m 4,1 km/h (1 Bft) O-NO 0,00 h 0,5 UV-I 62 W/m 3,8 C 5,3 C 9,9 km/h (2 Bft)
24.03.2017 09:00 23,4 C 5,8 C 56 % 87 % 1027,0 hPa 0,0 l/m 3,7 km/h (1 Bft) O-NO 0,00 h 0,6 UV-I 71 W/m 3,7 C 5,1 C 8,7 km/h (2 Bft)
24.03.2017 10:00 23,6 C 6,0 C 53 % 86 % 1027,7 hPa 0,0 l/m 3,5 km/h (1 Bft) O-NO 0,00 h 0,7 UV-I 83 W/m 3,8 C 5,5 C 9,1 km/h (2 Bft)
24.03.2017 11:00 23,7 C 6,3 C 55 % 84 % 1028,0 hPa 0,0 l/m 5,2 km/h (1 Bft) O-NO 0,03 h 1,0 UV-I 118 W/m 3,8 C 5,4 C 11,1 km/h (2 Bft)
24.03.2017 12:00 23,8 C 7,2 C 56 % 80 % 1028,2 hPa 0,0 l/m 3,5 km/h (1 Bft) O-NO 0,82 h 1,4 UV-I 186 W/m 4,0 C 6,6 C 7,2 km/h (2 Bft)
24.03.2017 13:00 23,8 C 8,4 C 54 % 76 % 1028,2 hPa 0,0 l/m 3,0 km/h (1 Bft) NO 1,00 h 1,6 UV-I 231 W/m 4,5 C 8,0 C 5,9 km/h (2 Bft)
24.03.2017 14:00 24,1 C 9,8 C 53 % 72 % 1027,9 hPa 0,0 l/m 4,6 km/h (1 Bft) N 1,00 h 2,1 UV-I 473 W/m 5,0 C 9,1 C 3,1 km/h (1 Bft)
24.03.2017 15:00 23,6 C 11,1 C 46 % 67 % 1027,5 hPa 0,0 l/m 2,1 km/h (1 Bft) O-NO 1,00 h 1,4 UV-I 382 W/m 5,2 C 10,9 C 3,3 km/h (1 Bft)
24.03.2017 16:00 22,9 C 11,2 C 42 % 63 % 1027,5 hPa 0,0 l/m 3,3 km/h (1 Bft) O 1,00 h 0,8 UV-I 247 W/m 4,5 C 10,9 C 7,0 km/h (2 Bft)
24.03.2017 17:00 23,0 C 9,9 C 41 % 66 % 1027,7 hPa 0,0 l/m 3,2 km/h (1 Bft) O-NO 0,07 h 0,5 UV-I 59 W/m 3,9 C 9,7 C 7,6 km/h (2 Bft)
24.03.2017 18:00 23,3 C 8,5 C 46 % 72 % 1028,2 hPa 0,0 l/m 0,4 km/h (0 Bft) O-NO 0,00 h 0,0 UV-I 15 W/m 3,8 C 8,5 C 1,8 km/h (1 Bft)
24.03.2017 19:00 23,6 C 7,1 C 48 % 76 % 1028,8 hPa 0,0 l/m 0,9 km/h (0 Bft) O-NO 0,00 h 0,0 UV-I 0 W/m 3,3 C 7,1 C 3,5 km/h (1 Bft)
24.03.2017 20:00 23,6 C 6,0 C 51 % 80 % 1029,5 hPa 0,0 l/m 0,0 km/h (0 Bft) N 0,00 h 0,0 UV-I 0 W/m 2,8 C 6,0 C 0,2 km/h (0 Bft)
24.03.2017 21:00 23,7 C 4,8 C 54 % 83 % 1029,9 hPa 0,0 l/m 0,0 km/h (0 Bft) N 0,00 h 0,0 UV-I 0 W/m 2,2 C 4,8 C 0,0 km/h (0 Bft)
24.03.2017 22:00 23,8 C 3,7 C 54 % 87 % 1030,1 hPa 0,0 l/m 0,0 km/h (0 Bft) N 0,00 h 0,0 UV-I 0 W/m 1,7 C 3,7 C 0,0 km/h (0 Bft)
24.03.2017 23:00 23,6 C 2,9 C 53 % 88 % 1030,2 hPa 0,0 l/m 0,0 km/h (0 Bft) N 0,00 h 0,0 UV-I 0 W/m 1,1 C 2,9 C 0,0 km/h (0 Bft)
25.03.2017 00:00 23,4 C 1,9 C 53 % 88 % 1030,2 hPa 0,0 l/m 0,0 km/h (0 Bft) N 0,00 h 0,0 UV-I 0 W/m 0,1 C 1,9 C 0,0 km/h (0 Bft)
25.03.2017 01:00 23,2 C 1,1 C 54 % 90 % 1030,3 hPa 0,0 l/m 0,0 km/h (0 Bft) N 0,00 h 0,0 UV-I 0 W/m -0,2 C 1,1 C 0,0 km/h (0 Bft)
25.03.2017 02:00 23,1 C 0,4 C 54 % 91 % 1030,1 hPa 0,0 l/m 0,0 km/h (0 Bft) N 0,00 h 0,0 UV-I 0 W/m -0,8 C 0,4 C 0,0 km/h (0 Bft)
25.03.2017 03:00 23,1 C -0,4 C 54 % 91 % 1029,9 hPa 0,0 l/m 0,0 km/h (0 Bft) N 0,00 h 0,0 UV-I 0 W/m -1,7 C -0,4 C 0,0 km/h (0 Bft)
25.03.2017 04:00 23,0 C -1,0 C 54 % 91 % 1029,6 hPa 0,0 l/m 0,0 km/h (0 Bft) N 0,00 h 0,0 UV-I 0 W/m -2,2 C -1,0 C 0,0 km/h (0 Bft)
25.03.2017 05:00 22,9 C -1,4 C 54 % 92 % 1029,5 hPa 0,0 l/m 0,0 km/h (0 Bft) N 0,00 h 0,0 UV-I 0 W/m -2,5 C -1,4 C 0,0 km/h (0 Bft)
25.03.2017 06:00 23,1 C -1,5 C 56 % 93 % 1029,4 hPa 0,0 l/m 0,0 km/h (0 Bft) N 0,00 h 0,0 UV-I 26 W/m -2,5 C -1,5 C 0,0 km/h (0 Bft)
25.03.2017 07:00 23,3 C 1,4 C 56 % 92 % 1029,5 hPa 0,0 l/m 0,3 km/h (0 Bft) N 0,47 h 0,6 UV-I 159 W/m 0,3 C 1,4 C 1,3 km/h (1 Bft)
25.03.2017 08:00 23,6 C 6,2 C 56 % 78 % 1029,4 hPa 0,0 l/m 3,6 km/h (1 Bft) O-NO 1,00 h 1,1 UV-I 368 W/m 2,6 C 5,7 C 8,3 km/h (2 Bft)
25.03.2017 09:00 23,5 C 8,5 C 53 % 67 % 1029,3 hPa 0,0 l/m 6,0 km/h (2 Bft) O-NO 1,00 h 1,9 UV-I 507 W/m 2,8 C 7,5 C 13,3 km/h (3 Bft)
25.03.2017 10:00 23,2 C 10,4 C 46 % 60 % 1029,0 hPa 0,0 l/m 3,7 km/h (1 Bft) O-NO 1,00 h 2,6 UV-I 606 W/m 2,8 C 10,0 C 8,3 km/h (2 Bft)
25.03.2017 11:00 23,1 C 10,6 C 44 % 53 % 1028,4 hPa 0,0 l/m 4,0 km/h (1 Bft) O-SO 1,00 h 2,9 UV-I 547 W/m 1,4 C 10,2 C 9,1 km/h (2 Bft)
25.03.2017 12:00 23,4 C 10,6 C 45 % 53 % 1027,5 hPa 0,0 l/m 2,6 km/h (1 Bft) O 1,00 h 2,4 UV-I 381 W/m 1,4 C 10,5 C 6,8 km/h (2 Bft)
25.03.2017 13:00 23,5 C 12,1 C 45 % 47 % 1026,6 hPa 0,0 l/m 2,9 km/h (1 Bft) O-NO 1,00 h 2,5 UV-I 474 W/m 1,2 C 12,0 C 7,2 km/h (2 Bft)
25.03.2017 14:00 23,7 C 11,8 C 44 % 46 % 1025,8 hPa 0,0 l/m 2,3 km/h (1 Bft) O 1,00 h 1,8 UV-I 355 W/m 0,5 C 11,6 C 6,1 km/h (2 Bft)
25.03.2017 15:00 23,7 C 12,8 C 41 % 45 % 1024,9 hPa 0,0 l/m 0,5 km/h (0 Bft) SO 1,00 h 1,5 UV-I 393 W/m 1,2 C 12,8 C 2,1 km/h (1 Bft)
25.03.2017 16:00 24,0 C 12,7 C 35 % 44 % 1023,9 hPa 0,0 l/m 1,4 km/h (1 Bft) N 1,00 h 0,8 UV-I 251 W/m 0,7 C 12,7 C 1,3 km/h (1 Bft)
25.03.2017 17:00 23,8 C 12,1 C 35 % 44 % 1023,3 hPa 0,0 l/m 0,1 km/h (0 Bft) O-SO 0,12 h 0,5 UV-I 68 W/m 0,4 C 12,1 C 0,6 km/h (0 Bft)
25.03.2017 18:00 23,9 C 10,2 C 38 % 53 % 1023,5 hPa 0,0 l/m 1,7 km/h (1 Bft) N 0,00 h 0,0 UV-I 8 W/m 0,9 C 10,1 C 3,9 km/h (1 Bft)
25.03.2017 19:00 24,2 C 8,4 C 41 % 61 % 1023,6 hPa 0,0 l/m 8,0 km/h (2 Bft) N 0,00 h 0,0 UV-I 0 W/m 1,5 C 7,1 C 12,1 km/h (2 Bft)
25.03.2017 20:00 24,2 C 6,9 C 42 % 65 % 1023,6 hPa 0,0 l/m 0,7 km/h (0 Bft) N-NO 0,00 h 0,0 UV-I 0 W/m 0,7 C 6,9 C 1,9 km/h (1 Bft)
25.03.2017 21:00 24,2 C 5,7 C 44 % 67 % 1023,4 hPa 0,0 l/m 0,0 km/h (0 Bft) N-NO 0,00 h 0,0 UV-I 0 W/m 0,1 C 5,7 C 0,1 km/h (0 Bft)
25.03.2017 22:00 24,7 C 4,3 C 44 % 73 % 1023,5 hPa 0,0 l/m 0,1 km/h (0 Bft) N-NO 0,00 h 0,0 UV-I 0 W/m -0,1 C 4,3 C 0,4 km/h (0 Bft)
25.03.2017 23:00 24,3 C 3,0 C 45 % 78 % 1023,2 hPa 0,0 l/m 0,6 km/h (0 Bft) N-NO 0,00 h 0,0 UV-I 0 W/m -0,4 C 3,0 C 2,1 km/h (1 Bft)
26.03.2017 00:00 23,8 C 1,9 C 45 % 83 % 1023,0 hPa 0,0 l/m 0,0 km/h (0 Bft) N 0,00 h 0,0 UV-I 0 W/m -0,7 C 1,9 C 0,0 km/h (0 Bft)
26.03.2017 01:00 23,5 C 1,3 C 46 % 85 % 1022,9 hPa 0,0 l/m 0,0 km/h (0 Bft) N 0,00 h 0,0 UV-I 0 W/m -1,0 C 1,3 C 0,0 km/h (0 Bft)
26.03.2017 03:00 23,4 C 0,6 C 47 % 86 % 1022,8 hPa 0,0 l/m 0,0 km/h (0 Bft) N 0,00 h 0,0 UV-I 0 W/m -1,4 C 0,6 C 0,0 km/h (0 Bft)
26.03.2017 04:00 23,3 C 0,0 C 47 % 88 % 1022,5 hPa 0,0 l/m 0,0 km/h (0 Bft) N 0,00 h 0,0 UV-I 0 W/m -1,7 C 0,0 C 0,0 km/h (0 Bft)
26.03.2017 05:00 23,2 C -0,4 C 47 % 90 % 1022,5 hPa 0,0 l/m 0,0 km/h (0 Bft) N 0,00 h 0,0 UV-I 0 W/m -1,9 C -0,4 C 0,0 km/h (0 Bft)
26.03.2017 06:00 23,1 C -0,6 C 48 % 91 % 1022,4 hPa 0,0 l/m 0,0 km/h (0 Bft) N 0,00 h 0,0 UV-I 0 W/m -1,9 C -0,6 C 0,0 km/h (0 Bft)
26.03.2017 07:00 23,1 C -0,3 C 48 % 92 % 1022,7 hPa 0,0 l/m 0,3 km/h (0 Bft) O-NO 0,00 h 0,0 UV-I 26 W/m -1,5 C -0,3 C 1,0 km/h (0 Bft)
26.03.2017 08:00 23,0 C 2,1 C 48 % 89 % 1023,2 hPa 0,0 l/m 1,6 km/h (1 Bft) O-NO 0,25 h 0,6 UV-I 125 W/m 0,5 C 2,1 C 5,4 km/h (1 Bft)
26.03.2017 09:00 23,3 C 5,4 C 49 % 78 % 1023,4 hPa 0,0 l/m 0,8 km/h (0 Bft) NO 1,00 h 1,1 UV-I 321 W/m 1,8 C 5,3 C 2,6 km/h (1 Bft)
26.03.2017 10:00 23,7 C 8,0 C 50 % 61 % 1023,9 hPa 0,0 l/m 3,5 km/h (1 Bft) O-NO 1,00 h 1,9 UV-I 495 W/m 0,9 C 7,7 C 9,5 km/h (2 Bft)
26.03.2017 11:00 23,8 C 9,1 C 47 % 44 % 1024,5 hPa 0,0 l/m 7,7 km/h (2 Bft) O-SO 1,00 h 2,8 UV-I 618 W/m -2,4 C 7,6 C 15,9 km/h (3 Bft)
26.03.2017 12:00 23,5 C 10,6 C 39 % 45 % 1024,8 hPa 0,0 l/m 8,5 km/h (2 Bft) O 1,00 h 3,4 UV-I 682 W/m -1,0 C 8,7 C 16,7 km/h (3 Bft)
26.03.2017 13:00 23,5 C 10,8 C 37 % 45 % 1024,7 hPa 0,0 l/m 5,6 km/h (1 Bft) O-SO 1,00 h 3,5 UV-I 694 W/m -0,6 C 10,0 C 12,9 km/h (3 Bft)
26.03.2017 14:00 23,7 C 11,2 C 36 % 44 % 1024,7 hPa 0,0 l/m 5,3 km/h (1 Bft) O 1,00 h 3,2 UV-I 655 W/m -0,6 C 10,5 C 11,6 km/h (2 Bft)
26.03.2017 15:00 23,6 C 11,4 C 35 % 42 % 1024,7 hPa 0,0 l/m 5,3 km/h (1 Bft) O 0,77 h 2,2 UV-I 469 W/m -0,9 C 10,8 C 11,2 km/h (2 Bft)
26.03.2017 16:00 24,0 C 11,8 C 37 % 40 % 1024,6 hPa 0,0 l/m 4,7 km/h (1 Bft) NO 1,00 h 1,6 UV-I 443 W/m -1,3 C 11,3 C 10,7 km/h (2 Bft)
26.03.2017 17:00 23,9 C 11,1 C 33 % 39 % 1024,4 hPa 0,0 l/m 3,6 km/h (1 Bft) O 1,00 h 0,9 UV-I 289 W/m -2,5 C 10,8 C 8,5 km/h (2 Bft)
26.03.2017 18:00 23,6 C 10,1 C 36 % 36 % 1024,6 hPa 0,0 l/m 2,2 km/h (1 Bft) O-SO 0,15 h 0,5 UV-I 94 W/m -4,1 C 10,0 C 6,5 km/h (2 Bft)
26.03.2017 19:00 23,9 C 8,6 C 39 % 42 % 1024,9 hPa 0,0 l/m 0,0 km/h (0 Bft) N 0,00 h 0,0 UV-I 11 W/m -3,6 C 8,6 C 0,0 km/h (0 Bft)
26.03.2017 20:00 24,1 C 7,0 C 39 % 50 % 1025,5 hPa 0,0 l/m 0,0 km/h (0 Bft) N 0,00 h 0,0 UV-I 0 W/m -2,8 C 7,0 C 0,0 km/h (0 Bft)
26.03.2017 21:00 24,2 C 4,6 C 41 % 62 % 1026,3 hPa 0,0 l/m 0,0 km/h (0 Bft) N 0,00 h 0,0 UV-I 0 W/m -2,0 C 4,6 C 0,0 km/h (0 Bft)
26.03.2017 22:00 24,2 C 2,9 C 43 % 69 % 1026,6 hPa 0,0 l/m 0,0 km/h (0 Bft) N 0,00 h 0,0 UV-I 0 W/m -2,2 C 2,9 C 0,0 km/h (0 Bft)
26.03.2017 23:00 24,2 C 1,8 C 43 % 72 % 1026,9 hPa 0,0 l/m 0,7 km/h (0 Bft) NO 0,00 h 0,0 UV-I 0 W/m -2,6 C 1,8 C 1,1 km/h (1 Bft)
Min-Datum _ 22.03.17 25.03.17 26.03.17 26.03.17 21.03.17 - 20.03.17 - - - - 26.03.17 22.03.17 20.03.17
_ Min-Zeit 09:10 06:03 17:36 18:32 00:14 - 00:23 - - - - 18:34 01:40 00:17
Minimum _ 22,3 C -1,6 C 29 % 34 % 1008,0 hPa - 0,0 km/h (0 Bft) - - - - -5,1 C -3,8 C 0,0 km/h (0 Bft)
Max-Datum _ 21.03.17 25.03.17 20.03.17 22.03.17 24.03.17 22.03.17 20.03.17 - 26.03.17 25.03.17 25.03.17 20.03.17 25.03.17 20.03.17
_ Max-Zeit 08:35 15:03 07:46 09:42 23:59 07:04 01:16 - 09:22 11:17 11:22 00:10 15:03 01:18
Maximum _ 26,1 C 13,6 C 62 % 96 % 1030,5 hPa 0,8 l/m 25,7 km/h
W (4 Bft)
- 0,10 h 3,6 UV-I 775 W/m 7,2 C 13,6 C 41,8 km/h
W (6 Bft)
Durchschnitt _ 23,5 C 6,5 C 51 % 80 % 1018,6 hPa #4,6 l/m 2,2 km/h (1 Bft) O-NO #34:19 h 1,3 UV-I 174 W/m 3,1 C 6,3 C 5,0 km/h (1 Bft)